Venice, California, United States (90291)
Lat: 33.99N, Lon: 118.46W
Wx Zone: CAZ041
Local Info
Past Weather Observations for Today

NOTE: This archive is for the closest National Weather Service station to Venice. Information may differ from the station used for current weather conditions.

Time Weather Temperature Dewpoint Humidity Pressure Winds Precip Visibility
21:53
Clear
61°F / 16°C 52°F / 11°C 72% 29.95 in
(1014 mb)
SSW 5.8 mph
(SSW 9 kph)
- 10SM
20:53
Partly Cloudy
63°F / 17°C 48°F / 9°C 59% 29.95 in
(1014 mb)
SSW 3.5 mph
(SSW 6 kph)
- 10SM
19:53
Partly Cloudy
63°F / 17°C 50°F / 10°C 64% 29.95 in
(1014 mb)
SSW 6.9 mph
(SSW 11 kph)
- 10SM
18:53
Partly Cloudy
63°F / 17°C 48°F / 9°C 59% 29.92 in
(1013 mb)
SSW 5.8 mph
(SSW 9 kph)
- 10SM
17:53
Partly Cloudy
64°F / 18°C 48°F / 9°C 56% 29.92 in
(1013 mb)
W 13.8 mph
(W 22 kph)
- 10SM
16:53
Partly Cloudy
66°F / 19°C 46°F / 8°C 49% 29.92 in
(1013 mb)
SSW 12.7 mph
(SSW 20 kph)
- 10SM
15:53
Mostly Cloudy
66°F / 19°C 45°F / 7°C 46% 29.92 in
(1013 mb)
SSW 11.5 mph
(SSW 19 kph)
- 10SM
14:53
Mostly Cloudy
68°F / 20°C 37°F / 3°C 33% 29.95 in
(1014 mb)
W 15 mph
(W 24 kph)
- 10SM
13:53
Mostly Cloudy
66°F / 19°C 46°F / 8°C 49% 29.95 in
(1014 mb)
SSW 16.1 mph
(SSW 26 kph)
- 10SM
12:53
Mostly Cloudy
66°F / 19°C 50°F / 10°C 56% 29.98 in
(1015 mb)
W 16.1 mph
(W 26 kph)
- 10SM
11:53
Mostly Cloudy
66°F / 19°C 54°F / 12°C 64% 29.98 in
(1015 mb)
SSW 13.8 mph
(SSW 22 kph)
- 10SM
10:53
Mostly Cloudy
68°F / 20°C 48°F / 9°C 49% 29.98 in
(1015 mb)
SSW 11.5 mph
(SSW 19 kph)
- 10SM
09:53
Mostly Cloudy
68°F / 20°C 43°F / 6°C 40% 29.98 in
(1015 mb)
E 3.5 mph
(E 6 kph)
- 10SM
08:53
Mostly Cloudy
64°F / 18°C 45°F / 7°C 49% 29.98 in
(1015 mb)
Variable 3.5 mph
(Variable 6 kph)
- 10SM
07:53
Mostly Cloudy
64°F / 18°C 46°F / 8°C 52% 29.98 in
(1015 mb)
ENE 6.9 mph
(ENE 11 kph)
- 10SM
06:53
Mostly Cloudy
61°F / 16°C 52°F / 11°C 72% 29.98 in
(1015 mb)
ENE 5.8 mph
(ENE 9 kph)
- 9SM
05:53
Mostly Cloudy
57°F / 14°C 50°F / 10°C 77% 29.95 in
(1014 mb)
E 5.8 mph
(E 9 kph)
- 10SM
04:53
Partly Cloudy
57°F / 14°C 48°F / 9°C 72% 29.95 in
(1014 mb)
NE 5.8 mph
(NE 9 kph)
- 10SM
03:53
Partly Cloudy
57°F / 14°C 50°F / 10°C 77% 29.92 in
(1013 mb)
Variable 4.6 mph
(Variable 7 kph)
- 10SM
02:53
Partly Cloudy
57°F / 14°C 48°F / 9°C 72% 29.95 in
(1014 mb)
NE 6.9 mph
(NE 11 kph)
- 10SM
01:53
Partly Cloudy
59°F / 15°C 48°F / 9°C 68% 29.95 in
(1014 mb)
NE 5.8 mph
(NE 9 kph)
- 10SM
00:53
Mostly Cloudy
57°F / 14°C 48°F / 9°C 72% 29.95 in
(1014 mb)
E 4.6 mph
(E 7 kph)
- 10SM
Time Weather Temperature Dewpoint Humidity Pressure Winds Precip Visibility


Weather for websites

WeatherForYou.com, LLC is not responsible for any damages or problems caused by this service. Current weather conditions are obtained from the closest station including government and personal stations which may have varying degrees of accuracy. Weather forecasts are derived from the NOAA NDFD. Like all things, this site belongs to Jesus Christ... He just trusts me to maintain it. If you have any questions or comments email webmaster@weatherforyou.com

Copyright © 2014, WeatherForYou.com LLC. All rights reserved.